Location: Brunsbüttel
(52.3892°N, 10.6138°E)
Time: 05:35:58
(UTC+00:00)

Cosmos 2360 Rocket - Pass Details

Date: 19 May 2025
Orbit: 834 x 842 km, 71.0° (Epoch: 22 June)

Event Time Altitude Azimuth Distance (km) Brightness Sun altitude
Rises 23:08:41 0° 327° (NNW) 3,394 6.4 -17.6°
Reaches altitude 10° 23:11:08 10° 326° (NW) 2,456 5.4 -17.6°
Maximum altitude 23:16:43 69° 244° (WSW) 895 2.2 -17.6°
Enters shadow 23:19:35 29° 169° (S) 1,475 2.9 -17.6°
